GW5978 Weather Reports


time (UTC)temp
C
wind
direction
speed
KPH
gust
KPH
rain 1hr
cm
rain 24hr
cm
rain mn
cm
humidity
%
barometer
mb
20260506081515 12 225 0.0 3.2 0.00 0.00 0.00 94 1009.8
20260506081015 12 129 1.6 3.2 0.00 0.00 0.00 94 1009.8
20260506080515 12 158 0.0 3.2 0.00 0.00 0.00 94 1009.8
20260506073522 12 123 1.6 3.2 0.00 0.00 0.00 92 1010.2
20260506073015 13 241 0.0 3.2 0.00 0.00 0.00 91 1009.8
20260506072516 13 113 0.0 4.8 0.00 0.00 0.00 91 1009.8
20260506072015 13 22 0.0 4.8 0.00 0.00 0.00 90 1010.2
20260506071517 13 141 1.6 4.8 0.00 0.00 0.00 90 1009.8
20260506071015 13 87 3.2 4.8 0.00 0.00 0.00 90 1009.8
20260506070522 13 118 0.0 3.2 0.00 0.00 0.00 90 1010.2
20260506062516 13 261 0.0 4.8 0.00 0.00 0.00 89 1009.8
20260506062016 13 121 0.0 4.8 0.00 0.00 0.00 88 1010.2
20260506061516 13 184 0.0 3.2 0.00 0.00 0.00 87 1010.2
20260506061015 13 170 1.6 3.2 0.00 0.00 0.00 87 1009.8
20260506060515 14 151 0.0 4.8 0.00 0.00 0.00 87 1009.8
20260506051018 15 176 3.2 6.4 0.00 0.00 0.00 83 1010.5
20260506050515 15 229 4.8 6.4 0.00 0.00 0.00 83 1010.2
20260506045015 15 176 0.0 6.4 0.00 0.00 0.00 81 1010.2
20260506044513 15 122 0.0 4.8 0.00 0.00 0.00 81 1010.2
20260506044014 15 131 1.6 8.0 0.00 0.00 0.00 80 1010.2
20260506043515 15 308 3.2 4.8 0.00 0.00 0.00 80 1010.2
20260506043014 15 169 3.2 8.0 0.00 0.00 0.00 79 1010.2
20260506042514 15 63 3.2 8.0 0.00 0.00 0.00 79 1010.2
20260506042016 15 168 1.6 4.8 0.00 0.00 0.00 79 1010.5
20260506041515 16 221 3.2 6.4 0.00 0.00 0.00 78 1010.5
20260506041015 16 114 3.2 6.4 0.00 0.00 0.00 77 1009.8
20260506040514 16 66 4.8 6.4 0.00 0.00 0.00 77 1010.2
20260506040014 16 84 0.0 6.4 0.00 0.00 0.00 77 1010.5
20260506035513 16 43 6.4 8.0 0.00 0.00 0.00 76 1010.2
20260506035014 16 224 3.2 8.0 0.00 0.00 0.00 76 1010.2
20260506034514 16 93 1.6 8.0 0.00 0.00 0.00 76 1010.2
20260506034015 16 221 0.0 4.8 0.00 0.00 0.00 75 1010.2
20260506033514 16 175 0.0 6.4 0.00 0.00 0.00 75 1010.5
20260506033013 16 164 1.6 3.2 0.00 0.00 0.00 74 1010.2
20260506032515 16 25 0.0 1.6 0.00 0.00 0.00 74 1010.2
20260506032014 16 89 0.0 3.2 0.00 0.00 0.00 74 1010.2
20260506031513 16 164 0.0 1.6 0.00 0.00 0.00 73 1009.8
20260506031014 16 241 0.0 0.0 0.00 0.00 0.00 73 1010.2
20260506030517 16 184 3.2 4.8 0.00 0.00 0.00 73 1010.2
20260506030016 17 180 0.0 3.2 0.00 0.00 0.00 72 1010.2
20260506025515 17 154 0.0 3.2 0.00 0.00 0.00 72 1010.2
20260506025014 17 22 0.0 3.2 0.00 0.00 0.00 72 1010.2
20260506024514 17 13 3.2 3.2 0.00 0.00 0.00 71 1010.5
20260506024014 17 106 0.0 1.6 0.00 0.00 0.00 71 1010.2
20260506023515 17 333 0.0 1.6 0.00 0.00 0.00 70 1010.2
20260506023014 17 175 0.0 3.2 0.00 0.00 0.00 70 1010.2
20260506022516 17 5 1.6 3.2 0.00 0.00 0.00 70 1009.8
20260506022015 17 17 0.0 3.2 0.00 0.00 0.00 70 1010.2
20260506021517 17 10 0.0 1.6 0.00 0.00 0.00 70 1010.2
20260506021018 17 11 1.6 1.6 0.00 0.00 0.00 70 1009.8
20260506020516 17 6 0.0 4.8 0.00 0.00 0.00 70 1009.8
20260506020014 17 214 0.0 1.6 0.00 0.00 0.00 69 1009.8
20260506015515 17 219 0.0 4.8 0.00 0.00 0.00 69 1009.8
20260506015014 17 168 0.0 3.2 0.00 0.00 0.00 69 1009.8
20260506014517 17 167 1.6 4.8 0.00 0.00 0.00 69 1009.8
20260506014015 17 315 0.0 3.2 0.00 0.00 0.00 69 1009.8
20260506013518 17 186 0.0 1.6 0.00 0.00 0.00 68 1009.8
20260506013014 17 183 1.6 3.2 0.00 0.00 0.00 68 1009.8
20260506012515 17 173 0.0 3.2 0.00 0.00 0.00 68 1009.5
20260506012015 17 77 0.0 4.8 0.00 0.00 0.00 68 1009.8
20260506011515 18 169 0.0 3.2 0.00 0.00 0.00 67 1009.5
20260506011017 18 321 0.0 4.8 0.00 0.00 0.00 67 1009.5
20260506010518 18 154 1.6 3.2 0.00 0.00 0.00 67 1009.5
20260506010014 18 185 0.0 6.4 0.00 0.00 0.00 67 1009.5
20260506005518 18 15 0.0 3.2 0.00 0.00 0.00 66 1009.1
20260506005015 18 205 0.0 4.8 0.00 0.00 0.00 66 1009.1
20260506004518 18 49 0.0 1.6 0.00 0.00 0.00 66 1009.1
20260506004014 18 127 1.6 4.8 0.00 0.00 0.00 66 1009.5
20260506003519 18 351 1.6 3.2 0.00 0.00 0.00 65 1009.1
20260506003014 18 340 0.0 1.6 0.00 0.00 0.00 65 1009.1
20260506002514 18 186 0.0 0.0 0.00 0.00 0.00 64 1009.1
20260506002017 18 23 0.0 3.2 0.00 0.00 0.00 64 1008.8
20260506001028 19 29 3.2 4.8 0.00 0.00 0.00 63 1008.8
20260506000515 19 358 0.0 3.2 0.00 0.00 0.00 63 1008.8
20260506000015 19 13 0.0 1.6 0.00 0.00 0.00 63 1008.8
20260505235514 19 343 0.0 4.8 0.00 0.00 0.00 62 1008.8
20260505235016 20 15 0.0 4.8 0.00 0.00 0.00 62 1008.8
20260505234513 20 10 0.0 3.2 0.00 0.00 0.00 61 1008.5
20260505234014 20 353 0.0 6.4 0.00 0.00 0.00 61 1008.5
20260505233516 20 154 0.0 4.8 0.00 0.00 0.00 60 1008.5
20260505233014 20 6 3.2 4.8 0.00 0.00 0.00 60 1008.1
20260505232514 20 32 0.0 4.8 0.00 0.00 0.00 60 1008.1
20260505232017 20 39 3.2 4.8 0.00 0.00 0.00 59 1008.1
20260505231517 20 48 0.0 3.2 0.00 0.00 0.00 59 1008.1
20260505231014 21 24 0.0 4.8 0.00 0.00 0.00 58 1008.1
20260505230517 21 180 1.6 4.8 0.00 0.00 0.00 58 1007.8
20260505230015 21 72 0.0 4.8 0.00 0.00 0.00 58 1007.8
20260505225514 21 183 4.8 6.4 0.00 0.00 0.00 57 1007.8
20260505225014 21 353 3.2 3.2 0.00 0.00 0.00 57 1007.8
20260505224515 21 8 1.6 4.8 0.00 0.00 0.00 57 1007.8
20260505224014 21 139 3.2 4.8 0.00 0.00 0.00 57 1007.5
20260505223515 21 0 0.0 6.4 0.00 0.00 0.00 57 1007.5
20260505223019 21 169 3.2 6.4 0.00 0.00 0.00 57 1008.1
20260505222513 21 340 0.0 6.4 0.00 0.00 0.00 56 1007.8
20260505221539 22 354 3.2 6.4 0.00 0.00 0.00 55 1008.1
20260505221014 22 4 0.0 4.8 0.00 0.00 0.00 55 1007.8
20260505220516 22 11 0.0 6.4 0.00 0.00 0.00 55 1007.8
20260505220015 22 340 3.2 6.4 0.00 0.00 0.00 53 1007.8
20260505215516 23 50 1.6 4.8 0.00 0.00 0.00 52 1007.8
20260505215018 23 180 0.0 6.4 0.00 0.00 0.00 53 1007.5
20260505214516 23 303 3.2 6.4 0.00 0.00 0.00 52 1007.8
20260505214015 23 124 3.2 6.4 0.00 0.00 0.00 51 1007.8
20260505213519 24 357 3.2 6.4 0.00 0.00 0.00 50 1007.5
20260505213017 24 250 3.2 4.8 0.00 0.00 0.00 51 1007.8
20260505212518 23 50 0.0 4.8 0.00 0.00 0.00 51 1007.8
20260505212017 23 153 3.2 6.4 0.00 0.00 0.00 52 1007.8
20260505211517 24 12 1.6 6.4 0.00 0.00 0.00 51 1007.8
20260505211016 24 299 3.2 6.4 0.00 0.00 0.00 51 1007.5
20260505210518 23 202 0.0 3.2 0.00 0.00 0.00 52 1007.5
20260505210015 23 329 3.2 3.2 0.00 0.00 0.00 52 1007.5
20260505205516 23 177 3.2 6.4 0.00 0.00 0.00 52 1007.5
20260505205016 23 20 3.2 6.4 0.00 0.00 0.00 52 1007.5
20260505204517 23 107 4.8 8.0 0.00 0.00 0.00 52 1007.5
20260505204016 23 6 3.2 4.8 0.00 0.00 0.00 52 1007.8
20260505203514 23 167 3.2 4.8 0.00 0.00 0.00 52 1007.5
20260505203015 23 358 3.2 4.8 0.00 0.00 0.00 52 1007.8
20260505202515 24 141 3.2 4.8 0.00 0.00 0.00 52 1007.8
20260505202016 23 154 0.0 4.8 0.00 0.00 0.00 52 1007.8
20260505201517 24 342 3.2 8.0 0.00 0.00 0.00 50 1007.8
20260505201016 24 350 3.2 4.8 0.00 0.00 0.00 50 1008.1
20260505200516 24 144 0.0 6.4 0.00 0.00 0.00 51 1008.1
20260505200015 24 7 1.6 8.0 0.00 0.00 0.00 50 1008.1
20260505195515 23 44 1.6 4.8 0.00 0.00 0.00 51 1008.1
20260505195017 24 210 4.8 4.8 0.00 0.00 0.00 51 1008.1
20260505194518 24 14 4.8 4.8 0.00 0.00 0.00 51 1008.1
20260505194016 23 33 0.0 4.8 0.00 0.00 0.00 52 1008.5
20260505193516 24 216 1.6 6.4 0.00 0.00 0.00 51 1008.5
20260505193017 24 348 3.2 6.4 0.00 0.00 0.00 51 1008.5
20260505192516 24 179 1.6 8.0 0.00 0.00 0.00 52 1008.5
20260505192015 24 198 0.0 4.8 0.00 0.00 0.00 51 1008.5
20260505191517 23 299 0.0 4.8 0.00 0.00 0.00 52 1008.5
20260505191020 24 353 4.8 8.0 0.00 0.00 0.00 51 1008.8
20260505190516 24 194 0.0 4.8 0.00 0.00 0.00 50 1008.8
20260505190015 25 216 1.6 6.4 0.00 0.00 0.00 50 1008.8
20260505185515 25 78 1.6 6.4 0.00 0.00 0.00 49 1008.5
20260505185017 24 338 3.2 8.0 0.00 0.00 0.00 50 1009.1
20260505184518 25 277 1.6 8.0 0.00 0.00 0.00 49 1008.8
20260505184015 25 27 3.2 6.4 0.00 0.00 0.00 48 1009.1
20260505183516 25 6 4.8 9.7 0.00 0.00 0.00 47 1009.1
20260505183017 25 219 0.0 6.4 0.00 0.00 0.00 49 1009.1
20260505182516 25 147 1.6 6.4 0.00 0.00 0.00 48 1008.8
20260505182020 25 57 0.0 6.4 0.00 0.00 0.00 48 1009.1
20260505181513 26 198 1.6 6.4 0.00 0.00 0.00 47 1009.1
20260505181017 26 1 4.8 6.4 0.00 0.00 0.00 47 1009.1
20260505180516 26 351 3.2 4.8 0.00 0.00 0.00 46 1009.1
20260505180016 26 28 4.8 4.8 0.00 0.00 0.00 46 1009.1
20260505175516 26 317 1.6 4.8 0.00 0.00 0.00 46 1009.1
20260505175018 26 359 0.0 6.4 0.00 0.00 0.00 45 1009.1
20260505174517 26 41 1.6 8.0 0.00 0.00 0.00 45 1009.1
20260505174015 26 347 1.6 6.4 0.00 0.00 0.00 44 1009.1
20260505173515 26 216 3.2 6.4 0.00 0.00 0.00 46 1009.1
20260505173015 25 11 0.0 8.0 0.00 0.00 0.00 46 1009.1
20260505172518 25 179 4.8 4.8 0.00 0.00 0.00 47 1009.1
20260505172016 25 194 3.2 9.7 0.00 0.00 0.00 46 1009.5
20260505171517 25 4 4.8 4.8 0.00 0.00 0.00 48 1009.1
20260505171018 25 357 1.6 6.4 0.00 0.00 0.00 46 1009.1
20260505170516 25 127 0.0 4.8 0.00 0.00 0.00 48 1009.5
20260505170017 25 321 6.4 6.4 0.00 0.00 0.00 48 1009.5
20260505165518 24 202 3.2 9.7 0.00 0.00 0.00 48 1009.8
20260505165015 24 87 3.2 9.7 0.00 0.00 0.00 48 1009.8
20260505164516 24 0 0.0 6.4 0.00 0.00 0.00 48 1009.8
20260505164016 25 197 3.2 6.4 0.00 0.00 0.00 48 1009.8
20260505163516 24 4 4.8 4.8 0.00 0.00 0.00 49 1009.5
20260505163016 24 329 0.0 4.8 0.00 0.00 0.00 48 1009.8
20260505162514 24 275 0.0 4.8 0.00 0.00 0.00 49 1009.8
20260505162016 23 62 3.2 3.2 0.00 0.00 0.00 50 1009.8
20260505161515 23 343 0.0 4.8 0.00 0.00 0.00 51 1010.2
20260505161017 23 301 0.0 4.8 0.00 0.00 0.00 51 1010.5
20260505160517 23 343 4.8 4.8 0.00 0.00 0.00 51 1010.5
20260505153016 22 318 0.0 9.7 0.00 0.00 0.00 53 1010.8
20260505152515 21 290 0.0 4.8 0.00 0.00 0.00 54 1010.5
20260505152016 22 226 0.0 8.0 0.00 0.00 0.00 54 1010.5
20260505151516 22 315 1.6 6.4 0.00 0.00 0.00 54 1010.8
20260505151016 21 122 0.0 4.8 0.00 0.00 0.00 54 1010.8
20260505150519 21 357 3.2 3.2 0.00 0.00 0.00 55 1010.8
20260505140516 18 224 1.6 8.0 0.00 0.00 0.00 65 1011.2
20260505125016 15 330 3.2 3.2 0.00 0.00 0.00 80 1011.2
20260505124515 15 171 4.8 4.8 0.00 0.00 0.00 82 1010.8
20260505124016 15 172 1.6 4.8 0.00 0.00 0.00 83 1011.2
20260505123518 14 341 1.6 4.8 0.00 0.00 0.00 86 1010.5
20260505123017 13 105 3.2 4.8 0.00 0.00 0.00 87 1010.8
20260505122515 13 137 0.0 4.8 0.00 0.00 0.00 89 1010.5
20260505122016 13 76 0.0 3.2 0.00 0.00 0.00 91 1011.2
20260505121516 12 113 0.0 3.2 0.00 0.00 0.00 91 1011.2
20260505121016 12 315 0.0 3.2 0.00 0.00 0.00 92 1010.8
20260505120517 12 120 0.0 3.2 0.00 0.00 0.00 92 1010.8
20260505120016 12 280 0.0 3.2 0.00 0.00 0.00 95 1010.8
20260505115516 12 287 0.0 3.2 0.00 0.00 0.00 96 1010.8
20260505115016 12 5 0.0 3.2 0.00 0.00 0.00 97 1011.2
20260505114519 11 265 3.2 3.2 0.00 0.00 0.00 98 1011.2
20260505114018 11 240 0.0 3.2 0.00 0.00 0.00 99 1011.2
20260505113518 11 2 1.6 4.8 0.00 0.00 0.00 99 1011.2
20260505113017 10 166 1.6 3.2 0.00 0.00 0.00 99 1011.5
20260505112516 10 261 0.0 4.8 0.00 0.00 0.00 99 1011.2
20260505112016 10 204 0.0 3.2 0.00 0.00 0.00 99 1011.5
20260505111516 9 26 1.6 3.2 0.00 0.00 0.00 99 1011.2
20260505111018 8 177 0.0 3.2 0.00 0.00 0.00 99 1011.5
20260505110515 8 7 0.0 3.2 0.00 0.00 0.00 99 1011.2
20260505102013 7 193 0.0 3.2 0.00 0.00 0.00 98 1010.5
20260505101513 7 117 0.0 3.2 0.00 0.00 0.00 98 1010.2
20260505101014 7 142 0.0 3.2 0.00 0.00 0.00 98 1010.2
20260505100513 7 137 0.0 3.2 0.00 0.00 0.00 98 1010.5
20260505100013 7 214 1.6 3.2 0.00 0.00 0.00 98 1010.2
20260505095514 7 135 0.0 3.2 0.00 0.00 0.00 98 1010.2
20260505095014 7 142 1.6 3.2 0.00 0.00 0.00 98 1010.2
20260505094514 7 58 1.6 3.2 0.00 0.00 0.00 98 1009.8
20260505094014 7 107 1.6 3.2 0.00 0.00 0.00 97 1009.8
20260505093514 7 154 3.2 3.2 0.00 0.00 0.00 97 1010.2
20260505093014 7 138 3.2 4.8 0.00 0.00 0.00 97 1009.8
20260505092513 7 255 1.6 3.2 0.00 0.00 0.00 97 1010.2
20260505092014 7 24 0.0 3.2 0.00 0.00 0.00 97 1010.2
20260505091513 7 283 0.0 4.8 0.00 0.00 0.00 97 1009.8
20260505091013 7 64 0.0 3.2 0.00 0.00 0.00 97 1009.8
20260505090513 7 183 3.2 4.8 0.00 0.00 0.00 97 1010.2
20260505090014 8 263 1.6 4.8 0.00 0.00 0.00 97 1009.8
20260505085513 8 212 3.2 4.8 0.00 0.00 0.00 97 1009.8
20260505085014 8 166 1.6 3.2 0.00 0.00 0.00 96 1009.8
20260505084515 8 119 0.0 3.2 0.00 0.00 0.00 96 1010.2
20260505084013 8 26 1.6 4.8 0.00 0.00 0.00 96 1010.2
20260505083513 8 185 1.6 3.2 0.00 0.00 0.00 96 1009.8
20260505083014 8 339 3.2 3.2 0.00 0.00 0.00 96 1010.2
20260505082513 8 106 0.0 3.2 0.00 0.00 0.00 96 1009.8
20260505082019 8 135 0.0 4.8 0.00 0.00 0.00 96 1009.8